INTELSAT 31 (IS-31)

Last updated on Sat Aug 22 2026 00:02:59 GMT+0000 (Coordinated Universal Time)

1 41581U 16035A 26233.10703699 -.00000153 00000+0 00000+0 0 9993 2 41581 0.0345 256.3371 0001316 77.5135 299.0684 1.00273172 37336
UTC large
Height (km)
Speed (km/s)
/
Latitude / Longitude
Inclination (degrees)
Orbital Period (minutes)
Azimuth
Elevation
Range (km)
Doppler Factor

Next 0 passes for location: London (51.5072 / 0.1276)

No passes found over London.
INTELSAT 31 (IS-31)